| time (UTC) | temp F | wind direction | speed MPH | gust MPH | rain 1hr in | rain 24hr in | rain mn in | humidity % | barometer mb |
| 20260510055654 | 70 | 354 | 1.0 | 5.0 | 0.00 | 0.00 | 0.00 | 75 | 1026.0 |
| 20260510054656 | 71 | 130 | 1.0 | 5.0 | 0.00 | 0.00 | 0.00 | 74 | 1026.0 |
| 20260510053656 | 70 | 211 | 1.0 | 4.0 | 0.00 | 0.00 | 0.00 | 75 | 1025.9 |
| 20260510052655 | 70 | 0 | 1.0 | 3.0 | 0.00 | 0.00 | 0.00 | 74 | 1025.8 |
| 20260510052128 | 71 | 216 | 2.0 | 6.0 | 0.00 | 0.00 | 0.00 | 73 | 1025.8 |
| 20260510050650 | 72 | 145 | 2.0 | 5.0 | 0.00 | 0.00 | 0.00 | 72 | 1025.7 |
| 20260510045650 | 72 | 112 | 2.0 | 8.0 | 0.00 | 0.00 | 0.00 | 71 | 1025.7 |
| 20260510045133 | 72 | 226 | 2.0 | 7.0 | 0.00 | 0.00 | 0.00 | 69 | 1025.7 |
| 20260510043651 | 71 | 114 | 2.0 | 6.0 | 0.00 | 0.00 | 0.00 | 71 | 1025.6 |
| 20260510042651 | 71 | 18 | 2.0 | 6.0 | 0.00 | 0.00 | 0.00 | 71 | 1025.6 |
| 20260510041649 | 71 | 89 | 2.0 | 7.0 | 0.00 | 0.00 | 0.00 | 70 | 1025.5 |
| 20260510040649 | 71 | 132 | 2.0 | 7.0 | 0.00 | 0.00 | 0.00 | 71 | 1025.5 |
| 20260510034649 | 71 | 278 | 2.0 | 7.0 | 0.00 | 0.00 | 0.00 | 68 | 1025.5 |
| 20260510033649 | 72 | 39 | 2.0 | 6.0 | 0.00 | 0.00 | 0.00 | 66 | 1025.5 |
| 20260510032646 | 71 | 315 | 2.0 | 6.0 | 0.00 | 0.00 | 0.00 | 66 | 1025.4 |
| 20260510031646 | 71 | 114 | 2.0 | 7.0 | 0.00 | 0.00 | 0.00 | 66 | 1025.5 |
| 20260510030646 | 71 | 28 | 2.0 | 7.0 | 0.00 | 0.00 | 0.00 | 67 | 1025.7 |
| 20260510025646 | 71 | 220 | 2.0 | 8.0 | 0.00 | 0.00 | 0.00 | 67 | 1025.8 |
| 20260510024648 | 71 | 101 | 2.0 | 7.0 | 0.00 | 0.00 | 0.00 | 66 | 1025.8 |
| 20260510023647 | 70 | 138 | 2.0 | 8.0 | 0.00 | 0.00 | 0.00 | 67 | 1025.9 |
| 20260510022644 | 70 | 154 | 2.0 | 7.0 | 0.00 | 0.00 | 0.00 | 67 | 1026.0 |
| 20260510021644 | 70 | 160 | 2.0 | 6.0 | 0.00 | 0.00 | 0.00 | 70 | 1026.1 |
| 20260510020644 | 70 | 305 | 2.0 | 5.0 | 0.00 | 0.00 | 0.00 | 69 | 1026.3 |
| 20260510015645 | 69 | 0 | 2.0 | 6.0 | 0.00 | 0.00 | 0.00 | 69 | 1026.3 |
| 20260510014645 | 69 | 245 | 2.0 | 9.0 | 0.00 | 0.00 | 0.00 | 68 | 1026.5 |
| 20260510013645 | 69 | 0 | 2.0 | 6.0 | 0.00 | 0.00 | 0.00 | 67 | 1026.6 |
| 20260510012642 | 69 | 137 | 2.0 | 6.0 | 0.00 | 0.00 | 0.00 | 66 | 1026.6 |
| 20260510011642 | 69 | 164 | 2.0 | 6.0 | 0.00 | 0.00 | 0.00 | 66 | 1026.7 |
| 20260510011127 | 69 | 179 | 2.0 | 6.0 | 0.00 | 0.00 | 0.00 | 65 | 1026.7 |
| 20260510005644 | 69 | 140 | 1.0 | 6.0 | 0.00 | 0.00 | 0.00 | 64 | 1026.9 |
| 20260510004644 | 70 | 143 | 2.0 | 6.0 | 0.00 | 0.00 | 0.00 | 63 | 1027.0 |
| 20260510003640 | 69 | 148 | 2.0 | 5.0 | 0.00 | 0.00 | 0.00 | 65 | 1027.0 |
| 20260510002640 | 70 | 103 | 1.0 | 6.0 | 0.00 | 0.00 | 0.00 | 64 | 1027.0 |
| 20260510001641 | 69 | 236 | 1.0 | 4.0 | 0.00 | 0.00 | 0.00 | 68 | 1027.0 |
| 20260510000640 | 69 | 27 | 1.0 | 3.0 | 0.00 | 0.00 | 0.00 | 69 | 1027.0 |
| 20260509235640 | 68 | 0 | 1.0 | 3.0 | 0.00 | 0.00 | 0.00 | 71 | 1026.9 |
| 20260509234640 | 65 | 0 | 1.0 | 2.0 | 0.00 | 0.00 | 0.00 | 74 | 1026.9 |
| 20260509234119 | 65 | 170 | 1.0 | 3.0 | 0.00 | 0.00 | 0.00 | 76 | 1026.9 |
| 20260509232639 | 64 | 0 | 1.0 | 3.0 | 0.00 | 0.00 | 0.00 | 75 | 1026.8 |
| 20260509230638 | 62 | 0 | 0.0 | 2.0 | 0.00 | 0.00 | 0.00 | 85 | 1026.8 |
| 20260509230122 | 60 | 0 | 1.0 | 4.0 | 0.00 | 0.00 | 0.00 | 90 | 1026.8 |
| 20260509224639 | 58 | 97 | 1.0 | 2.0 | 0.00 | 0.00 | 0.00 | 94 | 1026.7 |
| 20260509223639 | 57 | 0 | 1.0 | 3.0 | 0.00 | 0.00 | 0.00 | 97 | 1026.7 |
| 20260509222637 | 57 | 95 | 1.0 | 2.0 | 0.00 | 0.00 | 0.00 | 97 | 1026.7 |
| 20260509221637 | 56 | 61 | 0.0 | 2.0 | 0.00 | 0.00 | 0.00 | 97 | 1026.7 |
| 20260509220638 | 55 | 105 | 0.0 | 2.0 | 0.00 | 0.00 | 0.00 | 97 | 1026.7 |
| 20260509215638 | 54 | 48 | 0.0 | 2.0 | 0.00 | 0.00 | 0.00 | 97 | 1026.6 |
| 20260509214636 | 53 | 0 | 0.0 | 2.0 | 0.00 | 0.00 | 0.00 | 97 | 1026.5 |
| 20260509213635 | 51 | 70 | 0.0 | 1.0 | 0.00 | 0.00 | 0.00 | 97 | 1026.4 |
| 20260509212635 | 50 | 0 | 0.0 | 1.0 | 0.00 | 0.00 | 0.00 | 97 | 1026.3 |
| 20260509211632 | 49 | 0 | 0.0 | 1.0 | 0.00 | 0.00 | 0.00 | 97 | 1026.2 |
| 20260509211112 | 49 | 0 | 0.0 | 1.0 | 0.00 | 0.00 | 0.00 | 97 | 1026.1 |
| 20260509205632 | 48 | 0 | 0.0 | 1.0 | 0.00 | 0.00 | 0.00 | 96 | 1026.0 |
| 20260509204632 | 48 | 0 | 0.0 | 1.0 | 0.00 | 0.00 | 0.00 | 96 | 1025.9 |
| 20260509203632 | 48 | 0 | 0.0 | 1.0 | 0.00 | 0.00 | 0.00 | 96 | 1025.8 |
| 20260509202632 | 48 | 0 | 0.0 | 1.0 | 0.00 | 0.00 | 0.00 | 96 | 1025.7 |
| 20260509201630 | 48 | 0 | 0.0 | 1.0 | 0.00 | 0.00 | 0.00 | 96 | 1025.5 |
| 20260509200629 | 48 | 0 | 0.0 | 0.0 | 0.00 | 0.00 | 0.00 | 96 | 1025.4 |
| 20260509200113 | 48 | 0 | 0.0 | 1.0 | 0.00 | 0.00 | 0.00 | 96 | 1025.2 |
| 20260509195111 | 48 | 0 | 0.0 | 1.0 | 0.00 | 0.00 | 0.00 | 96 | 1025.1 |
| 20260509193628 | 48 | 67 | 0.0 | 0.0 | 0.00 | 0.00 | 0.00 | 96 | 1025.0 |
| 20260509192628 | 48 | 0 | 0.0 | 1.0 | 0.00 | 0.00 | 0.00 | 96 | 1024.9 |
| 20260509191627 | 48 | 31 | 0.0 | 1.0 | 0.00 | 0.00 | 0.00 | 96 | 1024.9 |
| 20260509190627 | 48 | 0 | 0.0 | 0.0 | 0.00 | 0.00 | 0.00 | 96 | 1024.8 |
| 20260509185627 | 47 | 0 | 0.0 | 1.0 | 0.00 | 0.00 | 0.00 | 96 | 1024.7 |
| 20260509185101 | 47 | 0 | 0.0 | 1.0 | 0.00 | 0.00 | 0.00 | 96 | 1024.6 |
| 20260509183624 | 47 | 0 | 0.0 | 1.0 | 0.00 | 0.00 | 0.00 | 96 | 1024.4 |
| 20260509182624 | 47 | 355 | 0.0 | 1.0 | 0.00 | 0.00 | 0.00 | 96 | 1024.4 |
| 20260509181624 | 47 | 0 | 0.0 | 1.0 | 0.00 | 0.00 | 0.00 | 96 | 1024.3 |
| 20260509180624 | 47 | 0 | 0.0 | 0.0 | 0.00 | 0.00 | 0.00 | 96 | 1024.2 |
| 20260509175625 | 47 | 0 | 0.0 | 1.0 | 0.00 | 0.00 | 0.00 | 96 | 1024.1 |
| 20260509174624 | 47 | 0 | 0.0 | 1.0 | 0.00 | 0.00 | 0.00 | 96 | 1024.0 |
| 20260509173620 | 48 | 0 | 0.0 | 1.0 | 0.00 | 0.00 | 0.00 | 96 | 1023.9 |
| 20260509172622 | 48 | 141 | 0.0 | 1.0 | 0.00 | 0.00 | 0.00 | 96 | 1023.9 |
| 20260509171621 | 48 | 0 | 0.0 | 1.0 | 0.00 | 0.00 | 0.00 | 96 | 1023.9 |
| 20260509170622 | 48 | 0 | 0.0 | 1.0 | 0.00 | 0.00 | 0.00 | 96 | 1023.9 |
| 20260509165622 | 49 | 0 | 0.0 | 0.0 | 0.00 | 0.00 | 0.00 | 96 | 1023.9 |
| 20260509164620 | 48 | 0 | 0.0 | 1.0 | 0.00 | 0.00 | 0.00 | 96 | 1023.9 |
| 20260509164057 | 48 | 35 | 0.0 | 1.0 | 0.00 | 0.00 | 0.00 | 96 | 1023.9 |
| 20260509162620 | 48 | 0 | 0.0 | 1.0 | 0.00 | 0.00 | 0.00 | 96 | 1024.0 |
| 20260509161619 | 48 | 0 | 0.0 | 1.0 | 0.00 | 0.00 | 0.00 | 95 | 1024.0 |
| 20260509160620 | 48 | 0 | 0.0 | 0.0 | 0.00 | 0.00 | 0.00 | 95 | 1024.1 |
| 20260509155617 | 48 | 357 | 0.0 | 0.0 | 0.00 | 0.00 | 0.00 | 95 | 1024.1 |
| 20260509154618 | 48 | 0 | 0.0 | 0.0 | 0.00 | 0.00 | 0.00 | 95 | 1024.0 |
| 20260509153617 | 48 | 0 | 0.0 | 0.0 | 0.00 | 0.00 | 0.00 | 95 | 1024.0 |
| 20260509152618 | 48 | 0 | 0.0 | 1.0 | 0.00 | 0.00 | 0.00 | 95 | 1024.1 |
| 20260509151619 | 48 | 0 | 0.0 | 0.0 | 0.00 | 0.00 | 0.00 | 95 | 1024.0 |
| 20260509151057 | 49 | 70 | 0.0 | 1.0 | 0.00 | 0.00 | 0.00 | 95 | 1024.0 |
| 20260509145615 | 49 | 0 | 0.0 | 1.0 | 0.00 | 0.00 | 0.00 | 95 | 1024.0 |
| 20260509145100 | 49 | 0 | 0.0 | 0.0 | 0.00 | 0.00 | 0.00 | 95 | 1023.9 |
| 20260509143612 | 49 | 0 | 0.0 | 0.0 | 0.00 | 0.00 | 0.00 | 95 | 1023.9 |
| 20260509142612 | 49 | 0 | 0.0 | 1.0 | 0.00 | 0.00 | 0.00 | 95 | 1024.0 |
| 20260509141614 | 50 | 0 | 0.0 | 0.0 | 0.00 | 0.00 | 0.00 | 95 | 1024.0 |
| 20260509140614 | 49 | 0 | 0.0 | 1.0 | 0.00 | 0.00 | 0.00 | 95 | 1024.0 |
| 20260509135613 | 49 | 0 | 0.0 | 1.0 | 0.00 | 0.00 | 0.00 | 94 | 1024.0 |
| 20260509134610 | 49 | 0 | 0.0 | 0.0 | 0.00 | 0.00 | 0.00 | 95 | 1024.0 |
| 20260509134050 | 49 | 0 | 0.0 | 1.0 | 0.00 | 0.00 | 0.00 | 94 | 1024.0 |
| 20260509132611 | 49 | 0 | 0.0 | 1.0 | 0.00 | 0.00 | 0.00 | 94 | 1024.0 |
| 20260509131611 | 48 | 0 | 0.0 | 0.0 | 0.00 | 0.00 | 0.00 | 94 | 1024.0 |
| 20260509130610 | 48 | 0 | 0.0 | 1.0 | 0.00 | 0.00 | 0.00 | 93 | 1024.1 |
| 20260509130051 | 48 | 0 | 0.0 | 0.0 | 0.00 | 0.00 | 0.00 | 93 | 1024.1 |
| 20260509124609 | 49 | 0 | 0.0 | 1.0 | 0.00 | 0.00 | 0.00 | 93 | 1024.0 |
| 20260509123609 | 48 | 0 | 0.0 | 1.0 | 0.00 | 0.00 | 0.00 | 93 | 1024.0 |
| 20260509122608 | 49 | 0 | 0.0 | 0.0 | 0.00 | 0.00 | 0.00 | 93 | 1024.0 |
| 20260509121609 | 49 | 0 | 0.0 | 1.0 | 0.00 | 0.00 | 0.00 | 93 | 1024.0 |
| 20260509120609 | 49 | 0 | 0.0 | 1.0 | 0.00 | 0.00 | 0.00 | 92 | 1024.0 |
| 20260509115610 | 49 | 0 | 0.0 | 1.0 | 0.00 | 0.00 | 0.00 | 92 | 1024.1 |
| 20260509114607 | 50 | 0 | 0.0 | 1.0 | 0.00 | 0.00 | 0.00 | 92 | 1024.0 |
| 20260509113606 | 50 | 0 | 0.0 | 0.0 | 0.00 | 0.00 | 0.00 | 92 | 1024.1 |
| 20260509112607 | 50 | 0 | 0.0 | 0.0 | 0.00 | 0.00 | 0.00 | 92 | 1024.0 |
| 20260509111607 | 50 | 0 | 0.0 | 1.0 | 0.00 | 0.00 | 0.00 | 92 | 1024.0 |
| 20260509110607 | 51 | 0 | 0.0 | 1.0 | 0.00 | 0.00 | 0.00 | 91 | 1024.0 |
| 20260509105607 | 51 | 0 | 0.0 | 1.0 | 0.00 | 0.00 | 0.00 | 91 | 1023.9 |
| 20260509104604 | 51 | 0 | 0.0 | 1.0 | 0.00 | 0.00 | 0.00 | 91 | 1023.9 |
| 20260509103605 | 52 | 0 | 0.0 | 1.0 | 0.00 | 0.00 | 0.00 | 91 | 1023.9 |
| 20260509102605 | 52 | 0 | 0.0 | 1.0 | 0.00 | 0.00 | 0.00 | 91 | 1023.8 |
| 20260509101605 | 52 | 0 | 0.0 | 1.0 | 0.00 | 0.00 | 0.00 | 91 | 1023.8 |
| 20260509100606 | 52 | 0 | 0.0 | 1.0 | 0.00 | 0.00 | 0.00 | 90 | 1023.7 |
| 20260509100046 | 52 | 0 | 0.0 | 1.0 | 0.00 | 0.00 | 0.00 | 90 | 1023.6 |
| 20260509094603 | 53 | 0 | 0.0 | 1.0 | 0.00 | 0.00 | 0.00 | 89 | 1023.6 |
| 20260509092603 | 53 | 0 | 0.0 | 1.0 | 0.00 | 0.00 | 0.00 | 89 | 1023.5 |
| 20260509092040 | 53 | 166 | 0.0 | 1.0 | 0.00 | 0.00 | 0.00 | 88 | 1023.5 |
| 20260509090600 | 54 | 165 | 0.0 | 1.0 | 0.00 | 0.00 | 0.00 | 87 | 1023.4 |
| 20260509085600 | 54 | 0 | 0.0 | 1.0 | 0.00 | 0.00 | 0.00 | 87 | 1023.4 |
| 20260509084601 | 54 | 0 | 0.0 | 1.0 | 0.00 | 0.00 | 0.00 | 86 | 1023.3 |
| 20260509081601 | 56 | 0 | 0.0 | 1.0 | 0.00 | 0.00 | 0.00 | 83 | 1023.0 |
| 20260509080602 | 56 | 0 | 0.0 | 1.0 | 0.00 | 0.00 | 0.00 | 83 | 1022.9 |
| 20260509075558 | 57 | 165 | 0.0 | 1.0 | 0.00 | 0.00 | 0.00 | 82 | 1022.8 |
| 20260509074558 | 58 | 0 | 0.0 | 2.0 | 0.00 | 0.00 | 0.00 | 80 | 1022.7 |
| 20260509073559 | 59 | 0 | 0.0 | 1.0 | 0.00 | 0.00 | 0.00 | 78 | 1022.6 |
| 20260509072559 | 60 | 0 | 0.0 | 1.0 | 0.00 | 0.00 | 0.00 | 77 | 1022.5 |
| 20260509071035 | 63 | 0 | 0.0 | 1.0 | 0.00 | 0.00 | 0.00 | 74 | 1022.3 |
| 20260509064557 | 65 | 0 | 0.0 | 4.0 | 0.00 | 0.00 | 0.00 | 71 | 1022.1 |
| 20260509063557 | 65 | 134 | 1.0 | 4.0 | 0.00 | 0.00 | 0.00 | 71 | 1022.0 |
| 20260509062559 | 66 | 51 | 0.0 | 3.0 | 0.00 | 0.00 | 0.00 | 71 | 1021.9 |
| 20260509061559 | 67 | 112 | 0.0 | 3.0 | 0.00 | 0.00 | 0.00 | 70 | 1021.9 |